FW5877 Monroe CT US current weather conditions

sailwx.info

Air temperature 8.3° C
Dewpoint 7.9° C

Last reported at 2019-Dec-14 15:03 UTC.
Time now 2019-Dec-14 16:00 UTC

Location: N 41°21' W 073°16'.
View on Google Maps.

See reports from other nearby stations

  
Tides and Currents Weather Stations Pressure Air Temp Water Temp Dewpoint Dewpoint Depression Visibility Wind Speed Wind Dir Waves Ship Positions
date/time (UTC)wind fromknots sea level pressurealtimeterstation pressurevisibilityair tempwater tempwave heightnotes
2019-Dec-14 15:03 8.3
2019-Dec-14 14:51 7.8
2019-Dec-14 14:47 7.8
2019-Dec-14 14:41 8.3
2019-Dec-14 14:36 005 7.8
2019-Dec-14 14:32 7.8
2019-Dec-14 14:26 7.8
2019-Dec-14 14:20 7.2
2019-Dec-14 14:17 7.2
2019-Dec-14 14:11 7.2
2019-Dec-14 14:06 7.2
2019-Dec-14 14:02 7.2
2019-Dec-14 13:56 7.2
2019-Dec-14 13:51 005 0 gusting 1 7.2
2019-Dec-14 13:47 017 7.2
2019-Dec-14 13:40 026 7.2
2019-Dec-14 13:36 032 7.2
2019-Dec-14 13:31 7.2
2019-Dec-14 13:26 7.2
2019-Dec-14 13:20 7.2
2019-Dec-14 13:16 7.2
2019-Dec-14 13:11 7.2
2019-Dec-14 13:05 029 7.8
2019-Dec-14 13:03 029 7.8
2019-Dec-14 12:56 029 0 gusting 1 7.8
2019-Dec-14 12:51 022 0 gusting 1 7.8
2019-Dec-14 12:48 022 0 gusting 1 7.8
2019-Dec-14 12:41 022 0 gusting 2 7.8
2019-Dec-14 12:36 7.8
2019-Dec-14 12:32 057 0 gusting 2 7.8
2019-Dec-14 12:26 7.8
2019-Dec-14 12:20 058 7.8
2019-Dec-14 12:17 058 0 gusting 1 7.8
2019-Dec-14 12:10 7.8
2019-Dec-14 12:06 7.8
2019-Dec-14 12:02 053 0 gusting 2 7.8
2019-Dec-14 11:56 076 7.8
2019-Dec-14 11:51 7.8
2019-Dec-14 11:46 7.8
2019-Dec-14 11:41 049 1 gusting 2 7.8
2019-Dec-14 11:36 067 7.8
2019-Dec-14 11:31 065 0 gusting 3 7.8
2019-Dec-14 11:26 070 0 gusting 2 7.8
2019-Dec-14 11:20 053 0 gusting 1 7.8
2019-Dec-14 10:56 040 0 gusting 2 7.8
2019-Dec-14 10:50 037 0 gusting 2 7.8
2019-Dec-14 10:46 034 0 gusting 2 7.8
2019-Dec-14 10:41 034 0 gusting 2 7.2
2019-Dec-14 10:36 034 0 gusting 1 7.2
2019-Dec-14 10:33 034 0 gusting 1 7.2
2019-Dec-14 10:26 034 0 gusting 1 7.2
2019-Dec-14 10:20 034 0 gusting 1 7.2
2019-Dec-14 10:17 034 0 gusting 1 7.2
2019-Dec-14 10:11 034 0 gusting 2 7.2
2019-Dec-14 10:06 034 7.2
2019-Dec-14 10:02 034 0 gusting 2 7.8
2019-Dec-14 09:55 021 0 gusting 2 7.8
2019-Dec-14 09:51 046 1 gusting 2 7.8
2019-Dec-14 09:48 041 7.8
2019-Dec-14 09:41 061 0 gusting 3 7.8
2019-Dec-14 09:36 031 0 gusting 5 7.8
2019-Dec-14 09:32 052 1 gusting 5 7.8
2019-Dec-14 09:25 055 2 gusting 4 7.8
2019-Dec-14 09:21 054 1 gusting 3 7.8
2019-Dec-14 09:02 043 1 gusting 2 7.2
2019-Dec-14 08:51 040 1 gusting 3 7.2
2019-Dec-14 08:46 044 1 gusting 4 7.2
2019-Dec-14 08:41 053 2 gusting 5 7.2
2019-Dec-14 08:36 108 0 gusting 6 7.2
2019-Dec-14 08:32 235 4 gusting 7 7.2
2019-Dec-14 08:26 033 3 gusting 7 7.2
2019-Dec-14 08:21 042 2 gusting 5 7.2
2019-Dec-14 08:18 057 2 gusting 5 7.2
2019-Dec-14 08:10 044 1 gusting 2 7.2
2019-Dec-14 08:06 044 0 gusting 2 6.7
2019-Dec-14 08:02 348 0 gusting 3 6.7
2019-Dec-14 07:56 049 0 gusting 5 6.7
2019-Dec-14 07:50 018 1 gusting 5 7.2
2019-Dec-14 07:40 049 1 gusting 7 7.2
2019-Dec-14 07:36 050 2 gusting 7 7.2
2019-Dec-14 07:32 042 1 gusting 4 6.7
2019-Dec-14 07:26 039 1 gusting 4 6.7
2019-Dec-14 07:21 026 1 gusting 4 6.7
2019-Dec-14 07:17 044 2 gusting 4 6.7
2019-Dec-14 07:10 051 1 gusting 3 6.7
2019-Dec-14 07:06 044 1 gusting 3 6.7
2019-Dec-14 07:02 053 1 gusting 3 6.7
2019-Dec-14 06:55 040 1 gusting 3 6.7
2019-Dec-14 06:51 037 1 gusting 3 6.7
2019-Dec-14 06:46 038 1 gusting 4 6.7
2019-Dec-14 06:41 048 1 gusting 6 6.7
2019-Dec-14 06:36 022 2 gusting 6 6.7
2019-Dec-14 06:31 044 1 gusting 4 6.7
2019-Dec-14 06:26 032 2 gusting 4 6.1
2019-Dec-14 06:21 025 1 gusting 3 6.1
2019-Dec-14 06:18 031 0 gusting 4 6.1
2019-Dec-14 06:10 039 1 gusting 4 6.7
2019-Dec-14 06:06 036 1 gusting 2 6.7
2019-Dec-14 06:03 041 0 gusting 2 6.7
2019-Dec-14 05:56 039 1 gusting 5 6.7
2019-Dec-14 05:50 046 0 gusting 6 6.7
2019-Dec-14 05:47 047 2 gusting 6 6.1
2019-Dec-14 05:41 044 1 gusting 4 6.1
2019-Dec-14 05:35 040 1 gusting 3 6.1
2019-Dec-14 05:32 046 1 gusting 4 6.1
2019-Dec-14 05:26 040 1 gusting 4 6.1
2019-Dec-14 05:21 044 2 gusting 4 6.1
2019-Dec-14 05:16 039 1 gusting 3 6.1
2019-Dec-14 05:11 044 1 gusting 3 6.1
2019-Dec-14 05:05 042 0 gusting 3 6.1
2019-Dec-14 05:02 026 0 gusting 3 6.1
2019-Dec-14 04:56 303 0 gusting 3 6.1
2019-Dec-14 04:50 6.1
2019-Dec-14 04:48 072 2 gusting 4 6.1
2019-Dec-14 04:40 6.1
2019-Dec-14 04:36 049 0 gusting 5 6.1
2019-Dec-14 04:31 047 1 gusting 4 6.1
2019-Dec-14 04:25 117 1 gusting 4 6.1
2019-Dec-14 04:20 057 1 gusting 4 6.1
2019-Dec-14 04:18 053 1 gusting 4 5.6
2019-Dec-14 04:10 061 1 gusting 4 5.6
2019-Dec-14 04:05 047 0 gusting 2 6.1
2019-Dec-14 04:01 063 0 gusting 3 5.6
2019-Dec-14 03:56 049 0 gusting 3 5.6
2019-Dec-14 03:50 045 5.0
2019-Dec-14 03:48 036 5.0
2019-Dec-14 03:41 076 0 gusting 2 5.0
2019-Dec-14 03:36 5.0
2019-Dec-14 03:32 5.0
2019-Dec-14 03:26 026 5.0
2019-Dec-14 03:20 038 5.0
2019-Dec-14 03:16 5.0
2019-Dec-14 03:10 018 5.0
2019-Dec-14 03:05 352 5.0
2019-Dec-14 03:01 360 1 gusting 3 5.6
2019-Dec-14 02:56 101 5.0
2019-Dec-14 02:50 067 0 gusting 2 5.0
2019-Dec-14 02:48 355 4.4
2019-Dec-14 02:41 5.0
2019-Dec-14 02:36 4.4
2019-Dec-14 02:31 4.4
2019-Dec-14 02:26 4.4
2019-Dec-14 02:21 4.4
2019-Dec-14 02:17 4.4
2019-Dec-14 02:11 4.4
2019-Dec-14 02:06 069 4.4
2019-Dec-14 02:02 342 3.9
2019-Dec-14 01:56 017 0 gusting 2 3.9
2019-Dec-14 01:51 030 0 gusting 1 3.9
2019-Dec-14 01:48 3.9
2019-Dec-14 01:41 005 3.3
2019-Dec-14 01:35 344 3.3
2019-Dec-14 01:33 3.9
2019-Dec-14 01:26 017 3.9
2019-Dec-14 01:20 3.3
2019-Dec-14 01:18 3.3
2019-Dec-14 01:11 3.3
2019-Dec-14 01:06 017 0 gusting 1 3.3
2019-Dec-14 01:02 3.3
2019-Dec-14 00:56 026 3.3
2019-Dec-14 00:50 3.3
2019-Dec-14 00:46 3.3
2019-Dec-14 00:41 2.8
2019-Dec-14 00:36 027 2.8
2019-Dec-14 00:32 2.8
2019-Dec-14 00:25 2.8
2019-Dec-14 00:20 2.8
2019-Dec-14 00:17 2.8
2019-Dec-14 00:11 044 3.3
2019-Dec-14 00:06 065 2.8
2019-Dec-14 00:02 3.3
2019-Dec-13 23:55 2.8
2019-Dec-13 23:51 062 3.3
2019-Dec-13 23:47 2.8
2019-Dec-13 23:41 069 0 gusting 2 3.3
2019-Dec-13 23:35 2.8
2019-Dec-13 23:33 061 3.3
2019-Dec-13 23:26 2.8
2019-Dec-13 23:21 2.8
2019-Dec-13 23:17 043 2.8
2019-Dec-13 23:11 2.8
2019-Dec-13 23:06 048 0 gusting 1 2.8
2019-Dec-13 23:03 048 2.8
2019-Dec-13 22:55 2.8
2019-Dec-13 22:50 055 2.8
2019-Dec-13 22:47 055 0 gusting 1 2.8
2019-Dec-13 22:41 042 0 gusting 1 2.8
2019-Dec-13 22:35 026 2.8
2019-Dec-13 22:33 2.8
2019-Dec-13 22:25 2.8
2019-Dec-13 22:21 2.2
2019-Dec-13 22:17 2.8
2019-Dec-13 22:10 011 2.8
2019-Dec-13 22:06 011 2.8
2019-Dec-13 22:01 2.8
2019-Dec-13 21:56 2.8
2019-Dec-13 21:51 2.8
2019-Dec-13 21:46 2.8
2019-Dec-13 21:41 2.8
2019-Dec-13 21:35 2.2
2019-Dec-13 21:31 2.2
2019-Dec-13 21:26 2.8
2019-Dec-13 21:21 2.8
2019-Dec-13 21:17 2.8
2019-Dec-13 21:10 298 2.8
2019-Dec-13 21:06 2.8
2019-Dec-13 21:03 2.2
2019-Dec-13 20:55 2.8
2019-Dec-13 20:50 2.2
2019-Dec-13 20:47 2.2
2019-Dec-13 20:41 2.2
2019-Dec-13 20:35 2.2
2019-Dec-13 20:31 2.2
2019-Dec-13 20:25 2.2
2019-Dec-13 20:20 297 0 gusting 2 2.2
2019-Dec-13 20:18 2.2
2019-Dec-13 20:11 2.2
2019-Dec-13 20:05 2.2
2019-Dec-13 20:02 2.2
2019-Dec-13 19:56 307 0 gusting 1 2.2
2019-Dec-13 19:50 2.2
2019-Dec-13 19:47 2.2
2019-Dec-13 19:41 2.2
2019-Dec-13 19:35 2.2
2019-Dec-13 19:34 2.2
2019-Dec-13 19:25 2.2
2019-Dec-13 19:20 342 2.2
2019-Dec-13 19:17 2.2
2019-Dec-13 19:10 2.2
2019-Dec-13 19:06 2.2
2019-Dec-13 19:02 2.2
2019-Dec-13 18:56 285 2.2
2019-Dec-13 18:51 1.7
2019-Dec-13 18:47 1.7
2019-Dec-13 18:41 1.7
2019-Dec-13 18:35 285 0 gusting 1 1.7
2019-Dec-13 18:33 1.7
2019-Dec-13 18:25 1.7
2019-Dec-13 18:21 1.7
2019-Dec-13 18:17 1.7
2019-Dec-13 18:10 1.7
2019-Dec-13 18:05 1.7
2019-Dec-13 18:02 1.7
2019-Dec-13 17:55 285 1.7
2019-Dec-13 17:51 1.7
2019-Dec-13 17:47 1.7
2019-Dec-13 17:40 1.7
2019-Dec-13 17:35 1.7
2019-Dec-13 17:32 1.7
2019-Dec-13 17:25 279 1.7
2019-Dec-13 17:21 1.1
2019-Dec-13 17:18 1.1
2019-Dec-13 17:11 1.1
2019-Dec-13 17:05 1.1
2019-Dec-13 17:02 0.6
2019-Dec-13 16:55 279 0.6
2019-Dec-13 16:51 0.6
2019-Dec-13 16:48 0.6
2019-Dec-13 16:40 0.6
2019-Dec-13 16:35 0.6
2019-Dec-13 16:32 0.6
2019-Dec-13 16:25 0.6
2019-Dec-13 16:21 -0.0
2019-Dec-13 16:19 -0.0
2019-Dec-13 16:11 -0.0
2019-Dec-13 16:06 -0.0
2019-Dec-13 16:02 -0.0
2019-Dec-13 15:55 -0.0
2019-Dec-13 15:51 -0.0
2019-Dec-13 15:49 -0.0
2019-Dec-13 15:41 -0.0
2019-Dec-13 15:36 -0.0
2019-Dec-13 15:31 -0.0
2019-Dec-13 15:26 -0.0
2019-Dec-13 15:20 -0.0
2019-Dec-13 15:18 -0.0
2019-Dec-13 15:11 -0.0
2019-Dec-13 15:05 -0.0
2019-Dec-13 15:02 304 -0.0
2019-Dec-13 14:55 -0.0
2019-Dec-13 14:50 -0.0
2019-Dec-13 14:41 -0.0
2019-Dec-13 14:36 -0.0
2019-Dec-13 14:32 -0.0
2019-Dec-13 14:26 -0.0
2019-Dec-13 14:21 -0.0
2019-Dec-13 14:16 -0.0
2019-Dec-13 14:10 -0.0
2019-Dec-13 14:05 -0.6
2019-Dec-13 14:02 -1.1
2019-Dec-13 13:55 -1.1
2019-Dec-13 13:50 -1.1
2019-Dec-13 13:48 -1.7
2019-Dec-13 13:41 -1.7
2019-Dec-13 13:36 -2.2
2019-Dec-13 13:31 -2.2
2019-Dec-13 13:25 -2.2
2019-Dec-13 13:21 -2.2
2019-Dec-13 13:18 -2.2
2019-Dec-13 13:11 -2.2
2019-Dec-13 13:06 -2.2
2019-Dec-13 13:02 -2.2
2019-Dec-13 12:55 -2.8
2019-Dec-13 12:51 306 -2.8
2019-Dec-13 12:47 -2.8
2019-Dec-13 12:40 -3.3
2019-Dec-13 12:35 307 -3.9
2019-Dec-13 12:32 -3.9
2019-Dec-13 12:26 -3.9
2019-Dec-13 12:21 -3.9
2019-Dec-13 12:17 -3.9
2019-Dec-13 12:11 -3.9
2019-Dec-13 12:06 -3.9
2019-Dec-13 12:01 -3.9
2019-Dec-13 11:55 -3.3
2019-Dec-13 11:50 -3.9
2019-Dec-13 11:47 -3.9
2019-Dec-13 11:40 -3.9
2019-Dec-13 11:36 -3.9
2019-Dec-13 11:31 -3.9
2019-Dec-13 11:26 -3.9
2019-Dec-13 11:21 -3.9
2019-Dec-13 11:17 -4.4
2019-Dec-13 11:11 -4.4
2019-Dec-13 11:05 -4.4
2019-Dec-13 11:04 -4.4
2019-Dec-13 10:55 -4.4
2019-Dec-13 10:50 -4.4
2019-Dec-13 10:47 -4.4
2019-Dec-13 10:41 -4.4
2019-Dec-13 10:35 -4.4
2019-Dec-13 10:32 -4.4
2019-Dec-13 10:25 -4.4
2019-Dec-13 10:20 -4.4
2019-Dec-13 10:18 -4.4
2019-Dec-13 10:11 -4.4
2019-Dec-13 10:06 -4.4
2019-Dec-13 10:02 -4.4
2019-Dec-13 09:50 -4.4
2019-Dec-13 09:48 -4.4
2019-Dec-13 09:41 -4.4
2019-Dec-13 09:36 -5.0
2019-Dec-13 09:32 -5.0
2019-Dec-13 09:25 -5.0
2019-Dec-13 09:20 -5.0
2019-Dec-13 09:17 -5.0
2019-Dec-13 09:10 -5.0
2019-Dec-13 09:05 -5.0
2019-Dec-13 09:02 -5.0
2019-Dec-13 08:55 -5.0
2019-Dec-13 08:50 -5.6
2019-Dec-13 08:48 -5.6
2019-Dec-13 08:40 -5.6
2019-Dec-13 08:36 -5.6
2019-Dec-13 08:31 -5.6
2019-Dec-13 08:25 -5.6
2019-Dec-13 08:20 -5.6
2019-Dec-13 08:18 -5.6
2019-Dec-13 08:11 -5.6
2019-Dec-13 08:06 -5.6
2019-Dec-13 08:01 -5.6
2019-Dec-13 07:55 -5.6
2019-Dec-13 07:50 -5.6
2019-Dec-13 07:47 -5.6
2019-Dec-13 07:40 -5.6
2019-Dec-13 07:35 -5.6
2019-Dec-13 07:34 -5.6
2019-Dec-13 07:25 -5.6
2019-Dec-13 07:18 -6.1
2019-Dec-13 07:05 -6.1
2019-Dec-13 07:03 -6.1
2019-Dec-13 06:56 -6.7
2019-Dec-13 06:50 -6.7
2019-Dec-13 06:40 -6.7
2019-Dec-13 06:35 -6.7
2019-Dec-13 06:32 -6.7
2019-Dec-13 06:26 -6.1
2019-Dec-13 06:21 -6.7
2019-Dec-13 06:17 -6.1
2019-Dec-13 06:11 -6.7
2019-Dec-13 06:05 -6.7
2019-Dec-13 06:02 -6.1
2019-Dec-13 05:56 -6.1
2019-Dec-13 05:50 -6.1
2019-Dec-13 05:46 -6.1
2019-Dec-13 05:40 -6.1
2019-Dec-13 05:36 -6.1
2019-Dec-13 05:33 -6.1
2019-Dec-13 05:26 -6.7
2019-Dec-13 05:21 -6.7
2019-Dec-13 05:06 -6.7
2019-Dec-13 05:03 -6.7
2019-Dec-13 04:55 -6.7
2019-Dec-13 04:51 -7.2
2019-Dec-13 04:48 -6.7
2019-Dec-13 04:41 -6.7
2019-Dec-13 04:36 -7.2
2019-Dec-13 04:32 -6.7
2019-Dec-13 04:26 -6.7
2019-Dec-13 04:21 -7.2
2019-Dec-13 04:19 -7.2
2019-Dec-13 04:10 -7.2
2019-Dec-13 04:05 -6.7
2019-Dec-13 04:02 -6.7
2019-Dec-13 03:55 -6.7
2019-Dec-13 03:51 -6.7
2019-Dec-13 03:47 -6.7
2019-Dec-13 03:40 -6.7
2019-Dec-13 03:36 -6.7
2019-Dec-13 03:33 -6.7
2019-Dec-13 03:25 -6.7
2019-Dec-13 03:21 -6.7
2019-Dec-13 03:19 -6.7
2019-Dec-13 03:11 -7.2
2019-Dec-13 03:06 -6.7
2019-Dec-13 03:02 -6.7
2019-Dec-13 02:56 -6.7
2019-Dec-13 02:50 -6.7
2019-Dec-13 02:49 -6.7
2019-Dec-13 02:41 -6.7
2019-Dec-13 02:35 -6.7
2019-Dec-13 02:32 -6.7
2019-Dec-13 02:26 -6.7
2019-Dec-13 02:20 -6.1
2019-Dec-13 02:18 -6.1
2019-Dec-13 02:10 -6.1
2019-Dec-13 02:05 -6.1
2019-Dec-13 02:01 -6.1
2019-Dec-13 01:55 -6.1
2019-Dec-13 01:51 -6.1
2019-Dec-13 01:48 -6.1
2019-Dec-13 01:40 -6.1
2019-Dec-13 01:35 -5.6
2019-Dec-13 01:32 -5.6
2019-Dec-13 01:25 -5.6
2019-Dec-13 01:21 -5.6
2019-Dec-13 01:16 -5.6
2019-Dec-13 01:11 -5.6
2019-Dec-13 01:05 270 -5.6
2019-Dec-13 01:01 -5.6
2019-Dec-13 00:56 -5.6
2019-Dec-13 00:50 265 -5.6
2019-Dec-13 00:48 -5.6
2019-Dec-13 00:41 -5.6
2019-Dec-13 00:35 -5.6
2019-Dec-13 00:33 -5.6
2019-Dec-13 00:25 -5.6
2019-Dec-13 00:21 -5.6
2019-Dec-13 00:18 -5.0
2019-Dec-13 00:10 -5.0
2019-Dec-13 00:05 -5.0
2019-Dec-13 00:04 -5.0
2019-Dec-12 23:56 -5.0
2019-Dec-12 23:50 -5.0
2019-Dec-12 23:48 265 -5.0
2019-Dec-12 23:40 -5.0
2019-Dec-12 23:36 -5.0
2019-Dec-12 23:31 -5.0
2019-Dec-12 23:25 -4.4
2019-Dec-12 23:21 -4.4
2019-Dec-12 23:17 -4.4
2019-Dec-12 23:10 -5.0
2019-Dec-12 23:06 -5.0
2019-Dec-12 23:02 -4.4
2019-Dec-12 22:56 -4.4
2019-Dec-12 22:50 -4.4
2019-Dec-12 22:47 -4.4
2019-Dec-12 22:41 -4.4
2019-Dec-12 22:35 -4.4
2019-Dec-12 22:33 -4.4
2019-Dec-12 22:26 -4.4
2019-Dec-12 22:21 -3.9
2019-Dec-12 22:20 -3.9
2019-Dec-12 22:10 -3.9
2019-Dec-12 22:05 -3.9
2019-Dec-12 22:02 -3.9
2019-Dec-12 21:55 -3.9
2019-Dec-12 21:51 262 -3.9
2019-Dec-12 21:46 -3.3
2019-Dec-12 21:41 -3.3
2019-Dec-12 21:35 -3.3
2019-Dec-12 21:33 -3.3
2019-Dec-12 21:25 -2.8
2019-Dec-12 21:20 -2.8
2019-Dec-12 21:17 -2.8
2019-Dec-12 21:10 -2.8
2019-Dec-12 21:05 -2.2
2019-Dec-12 21:02 -2.2
2019-Dec-12 20:55 064 -2.2
2019-Dec-12 20:50 -2.2
2019-Dec-12 20:47 -2.2
2019-Dec-12 20:40 -2.2
2019-Dec-12 20:35 -2.2
2019-Dec-12 20:31 064 -1.7
2019-Dec-12 20:25 -2.2
2019-Dec-12 20:20 -2.2
2019-Dec-12 20:17 -2.2
2019-Dec-12 20:11 275 -2.2
2019-Dec-12 20:05 256 0 gusting 2 -1.7
2019-Dec-12 20:01 192 -1.7
2019-Dec-12 19:55 -1.7
2019-Dec-12 19:50 278 0 gusting 2 -2.2
2019-Dec-12 19:47 -1.7
2019-Dec-12 19:40 -1.7
2019-Dec-12 19:35 234 0 gusting 2 -1.7
2019-Dec-12 19:33 262 0 gusting 2 -1.7
2019-Dec-12 19:25 -2.2
2019-Dec-12 19:20 269 -1.7
2019-Dec-12 19:19 267 0 gusting 3 -1.7
2019-Dec-12 19:11 071 0 gusting 4 -1.7
2019-Dec-12 19:06 067 1 gusting 4 -1.7
2019-Dec-12 19:02 284 0 gusting 4 -1.7
2019-Dec-12 18:56 -1.7
2019-Dec-12 18:51 016 2 gusting 5 -1.7
2019-Dec-12 18:47 051 1 gusting 4 -1.7
2019-Dec-12 18:40 030 1 gusting 3 -1.7
2019-Dec-12 18:36 059 1 gusting 4 -1.7
2019-Dec-12 18:32 057 1 gusting 4 -1.1
2019-Dec-12 18:26 043 1 gusting 4 -1.7
2019-Dec-12 18:20 012 2 gusting 4 -1.1
2019-Dec-12 18:18 288 1 gusting 3 -1.7
2019-Dec-12 18:11 238 0 gusting 5 -1.1
2019-Dec-12 18:05 031 1 gusting 5 -1.1
2019-Dec-12 18:02 -1.1
2019-Dec-12 17:55 -1.1
2019-Dec-12 17:50 350 1 gusting 5 -1.7
2019-Dec-12 17:48 020 1 gusting 4 -1.1
2019-Dec-12 17:40 168 0 gusting 4 -1.1
2019-Dec-12 17:36 042 2 gusting 4 -1.1
2019-Dec-12 17:32 028 2 gusting 5 -0.6
2019-Dec-12 17:25 041 1 gusting 5 -1.1
2019-Dec-12 17:20 287 1 gusting 5 -1.1
2019-Dec-12 17:17 338 1 gusting 6 -2.2
2019-Dec-12 17:10 040 1 gusting 6 -1.7
2019-Dec-12 17:05 067 2 gusting 6 -2.2
2019-Dec-12 17:02 051 2 gusting 5 -2.2
2019-Dec-12 16:55 046 1 gusting 5 -1.7
2019-Dec-12 16:50 066 1 gusting 4 -0.6
2019-Dec-12 16:48 034 0 gusting 4 -1.1
2019-Dec-12 16:40 023 0 gusting 4 -1.7
2019-Dec-12 16:35 034 0 gusting 4 -2.2
2019-Dec-12 16:32 288 0 gusting 4 -1.7
2019-Dec-12 16:25 130 0 gusting 3 -1.1
2019-Dec-12 16:20 034 1 gusting 4 -1.1
2019-Dec-12 16:16 005 1 gusting 4 -1.1
2019-Dec-12 16:11 045 1 gusting 4 -1.1
2019-Dec-12 16:05 264 0 gusting 4 -1.7
2019-Dec-12 16:01 052 0 gusting 4 -2.8